Weather History for Fort Eustis, VA

Change the Weather History Date:

Saturday, May 4, 2013

  Actual Average Record
Temperature  
Mean Temperature 56 °F -  
Max Temperature 63 °F 73 °F 85 °F (2012)
Min Temperature 49 °F 55 °F 44 °F (2005)
Degree Days  
Heating Degree Days 9    
Growing Degree Days 6 (Base 50)    
Moisture  
Dew Point 48 °F    
Average Humidity 76    
Maximum Humidity 88    
Minimum Humidity 54    
Precipitation  
Precipitation 0.00 in - - ()
Sea Level Pressure  
Sea Level Pressure 30.21 in    
Wind  
Wind Speed 8 mph (NE)    
Max Wind Speed 15 mph    
Max Gust Speed 22 mph    
Visibility 10 miles    
Events      
Averages and records for this station are not official NWS values.
T = Trace of Precipitation, MM = Missing Value Source: NWS Daily Summary

Daily Weather History Graph

Daily Weather History Graph

Search for Another Location

Airport:

Trip Planner

Search our weather history database for the weather conditions in past years. The results will help you decide how hot, cold, wet, or windy it might be!

Date:

Astronomy

May. 04, 2013 Rise Set
Actual Time 6:08 AM EDT 7:58 PM EDT
Civil Twilight 5:40 AM EDT 8:26 PM EDT
Nautical Twilight 5:06 AM EDT 9:01 PM EDT
Astronomical Twilight 4:29 AM EDT 9:37 PM EDT
Moon 2:58 AM EDT (5/4) 3:00 PM EDT (5/4)
Length of Visible Light 14h 46m
Length of Day
13h 50m
Waning Crescent, 27% of the Moon is Illuminated
May 4
Waning Crescent
May 9
New
May 18
First Quarter
May 25
Full
May 31
Last Quarter

Hourly Weather History & Observations

Time (EDT) Temp. Dew Point Humidity Pressure Visibility Wind Dir Wind Speed Gust Speed Precip Events Conditions
12:58 AM 50.5 °F 45.0 °F 81% 30.26 in 10.0 mi NE 8.1 mph - N/A   Clear
1:58 AM 50.2 °F 45.3 °F 83% 30.24 in 10.0 mi NE 5.8 mph - N/A   Clear
2:58 AM 49.8 °F 45.7 °F 86% 30.22 in 10.0 mi Variable 4.6 mph - N/A   Partly Cloudy
3:13 AM 50.0 °F 46.4 °F 87% 30.21 in 10.0 mi NE 4.6 mph - N/A   Mostly Cloudy
3:48 AM 50.0 °F 46.4 °F 87% 30.21 in 10.0 mi Variable 4.6 mph - N/A   Overcast
3:58 AM 51.1 °F 47.3 °F 87% 30.22 in 10.0 mi NE 5.8 mph - N/A   Overcast
4:58 AM 52.3 °F 47.7 °F 84% 30.22 in 10.0 mi NE 8.1 mph - N/A   Overcast
5:58 AM 52.7 °F 48.4 °F 85% 30.23 in 10.0 mi ENE 5.8 mph - N/A   Overcast
6:58 AM 52.9 °F 49.1 °F 87% 30.23 in 10.0 mi Variable 5.8 mph - N/A   Overcast
6:59 AM 53.6 °F 50.0 °F 88% 30.22 in 10.0 mi North 5.8 mph - N/A   Light Drizzle
7:09 AM 53.6 °F 50.0 °F 88% 30.22 in 10.0 mi NNE 8.1 mph - N/A   Overcast
7:58 AM 53.4 °F 49.1 °F 85% 30.23 in 10.0 mi NNE 8.1 mph - 0.00 in   Overcast
8:58 AM 54.5 °F 48.7 °F 81% 30.23 in 10.0 mi NE 10.4 mph - N/A   Overcast
9:58 AM 54.9 °F 48.9 °F 80% 30.24 in 10.0 mi NNE 10.4 mph - N/A   Overcast
10:58 AM 55.4 °F 49.5 °F 80% 30.23 in 9.0 mi ENE 11.5 mph - N/A   Overcast
11:58 AM 56.1 °F 49.6 °F 79% 30.22 in 10.0 mi NE 12.7 mph - N/A   Overcast
12:48 PM 59.0 °F 50.0 °F 72% 30.20 in 10.0 mi NE 9.2 mph - N/A   Overcast
12:58 PM 58.3 °F 50.2 °F 74% 30.21 in 10.0 mi ENE 8.1 mph - N/A   Overcast
1:58 PM 61.0 °F 50.5 °F 68% 30.20 in 10.0 mi NE 10.4 mph - N/A   Overcast
2:58 PM 62.1 °F 49.1 °F 62% 30.19 in 10.0 mi ENE 15.0 mph 20.7 mph N/A   Mostly Cloudy
3:13 PM 62.6 °F 48.2 °F 59% 30.18 in 10.0 mi East 12.7 mph 20.7 mph N/A   Mostly Cloudy
3:58 PM 62.4 °F 48.9 °F 61% 30.18 in 10.0 mi ENE 11.5 mph 21.9 mph N/A   Mostly Cloudy
4:58 PM 63.0 °F 48.7 °F 60% 30.17 in 10.0 mi NE 13.8 mph 18.4 mph N/A   Scattered Clouds
5:58 PM 61.3 °F 44.4 °F 54% 30.18 in 10.0 mi ENE 13.8 mph 20.7 mph N/A   Clear
6:58 PM 59.0 °F 43.7 °F 57% 30.18 in 10.0 mi NE 11.5 mph 19.6 mph N/A   Clear
7:58 PM 55.9 °F 44.1 °F 64% 30.18 in 10.0 mi NE 9.2 mph - N/A   Clear
8:58 PM 54.1 °F 44.6 °F 70% 30.19 in 10.0 mi NE 5.8 mph - N/A   Clear
9:58 PM 52.7 °F 45.1 °F 75% 30.20 in 10.0 mi NE 6.9 mph - N/A   Clear
10:58 PM 51.4 °F 45.3 °F 80% 30.19 in 10.0 mi NE 4.6 mph - N/A   Clear
11:58 PM 50.5 °F 45.5 °F 83% 30.18 in 10.0 mi NE 3.5 mph - N/A   Clear